IZ3ZOD-13 Weather Reports


Display with metric or nautical units.
time (UTC)temp
F
wind
direction
speed
MPH
gust
MPH
rain 1hr
in
rain 24hr
in
rain mn
in
humidity
%
barometer
mb
20260905095816 85 249 1.0 3.0 0.00 0.00 0.00 63 1017.5
20260905095416 85 241 1.0 3.0 0.00 0.00 0.00 63 1017.4
20260905094803 87 281 1.0 2.0 0.00 0.00 0.00 60 1017.4
20260905094403 88 286 1.0 4.0 0.00 0.00 0.00 58 1017.6
20260905094003 88 283 1.0 4.0 0.00 0.00 0.00 59 1017.5
20260905093603 87 283 1.0 4.0 0.00 0.00 0.00 61 1017.4
20260905093413 87 291 1.0 3.0 0.00 0.00 0.00 63 1017.5
20260905093017 87 308 1.0 4.0 0.00 0.00 0.00 62 1017.5
20260905092403 86 354 2.0 4.0 0.00 0.00 0.00 63 1017.5
20260905092003 87 347 2.0 4.0 0.00 0.00 0.00 64 1017.4
20260905091603 87 315 2.0 4.0 0.00 0.00 0.00 62 1017.5
20260905091203 87 294 2.0 4.0 0.00 0.00 0.00 63 1017.4
20260905091014 87 290 2.0 4.0 0.00 0.00 0.00 64 1017.5
20260905090613 86 282 2.0 6.0 0.00 0.00 0.00 66 1017.5
20260905090003 85 315 2.0 6.0 0.00 0.00 0.00 67 1017.4
20260905085603 83 351 1.0 4.0 0.00 0.00 0.00 68 1017.3
20260905085203 83 14 1.0 3.0 0.00 0.00 0.00 70 1017.4
20260905084803 83 16 2.0 4.0 0.00 0.00 0.00 70 1017.1
20260905084403 84 13 2.0 4.0 0.00 0.00 0.00 68 1017.1
20260905084003 85 1 2.0 4.0 0.00 0.00 0.00 67 1017.1
20260905083814 85 350 1.0 3.0 0.00 0.00 0.00 67 1017.0
20260905083413 85 356 1.0 3.0 0.00 0.00 0.00 66 1017.1
20260905082803 83 1 2.0 6.0 0.00 0.00 0.00 68 1017.2
20260905082403 83 349 2.0 6.0 0.00 0.00 0.00 68 1017.0
20260905082003 84 346 1.0 3.0 0.00 0.00 0.00 67 1017.3
20260905081603 83 349 1.0 3.0 0.00 0.00 0.00 67 1017.0
20260905081415 82 1 1.0 2.0 0.00 0.00 0.00 68 1017.0
20260905080803 82 11 2.0 6.0 0.00 0.00 0.00 68 1016.7
20260905080614 81 7 2.0 6.0 0.00 0.00 0.00 70 1016.9
20260905080003 82 349 2.0 6.0 0.00 0.00 0.00 68 1016.8
20260905075603 82 352 1.0 3.0 0.00 0.00 0.00 69 1016.8
20260905075203 82 326 1.0 2.0 0.00 0.00 0.00 69 1016.8
20260905074803 81 342 1.0 3.0 0.00 0.00 0.00 70 1016.9
20260905074403 81 322 1.0 3.0 0.00 0.00 0.00 71 1016.9
20260905074215 81 316 1.0 3.0 0.00 0.00 0.00 69 1016.7
20260905073603 80 304 1.0 3.0 0.00 0.00 0.00 70 1016.7
20260905073203 80 307 1.0 3.0 0.00 0.00 0.00 71 1016.6
20260905072803 79 305 1.0 3.0 0.00 0.00 0.00 72 1016.6
20260905072403 79 306 1.0 3.0 0.00 0.00 0.00 73 1016.7
20260905072217 79 309 1.0 3.0 0.00 0.00 0.00 73 1016.6
20260905071816 78 304 1.0 2.0 0.00 0.00 0.00 73 1016.6
20260905071203 77 286 2.0 6.0 0.00 0.00 0.00 75 1016.7
20260905070803 77 280 2.0 6.0 0.00 0.00 0.00 75 1016.6
20260905070614 77 281 2.0 3.0 0.00 0.00 0.00 75 1016.7
20260905070004 77 293 2.0 6.0 0.00 0.00 0.00 76 1016.7
20260905065603 77 300 2.0 6.0 0.00 0.00 0.00 75 1016.6
20260905065203 76 298 1.0 3.0 0.00 0.00 0.00 77 1016.7
20260905064803 76 285 1.0 3.0 0.00 0.00 0.00 77 1016.4
20260905064403 76 278 1.0 3.0 0.00 0.00 0.00 77 1016.5
20260905064003 76 276 1.0 3.0 0.00 0.00 0.00 78 1016.2
20260905063603 76 275 1.0 3.0 0.00 0.00 0.00 78 1016.3
20260905063203 75 279 1.0 3.0 0.00 0.00 0.00 79 1016.3
20260905062803 75 279 1.0 3.0 0.00 0.00 0.00 78 1016.4
20260905062403 74 271 1.0 3.0 0.00 0.00 0.00 79 1016.2
20260905062212 74 268 1.0 2.0 0.00 0.00 0.00 80 1016.1
20260905061604 74 273 1.0 4.0 0.00 0.00 0.00 81 1016.1
20260905061203 73 288 1.0 4.0 0.00 0.00 0.00 82 1016.1
20260905060803 73 300 1.0 3.0 0.00 0.00 0.00 81 1016.2
20260905060403 73 304 1.0 3.0 0.00 0.00 0.00 82 1016.4
20260905060004 72 291 1.0 3.0 0.00 0.00 0.00 83 1016.2
20260905055814 72 287 1.0 3.0 0.00 0.00 0.00 83 1016.3
20260905055203 72 283 1.0 3.0 0.00 0.00 0.00 84 1016.3
20260905054803 72 280 1.0 2.0 0.00 0.00 0.00 85 1016.2
20260905054617 72 280 0.0 2.0 0.00 0.00 0.00 84 1016.2
20260905054003 71 287 0.0 2.0 0.00 0.00 0.00 85 1015.9
20260905053603 71 0 0.0 0.0 0.00 0.00 0.00 86 1016.0
20260905053203 70 0 0.0 0.0 0.00 0.00 0.00 88 1015.9
20260905052803 69 0 0.0 0.0 0.00 0.00 0.00 89 1015.9
20260905052403 69 0 0.0 0.0 0.00 0.00 0.00 90 1016.1
20260905052003 69 0 0.0 0.0 0.00 0.00 0.00 90 1015.9
20260905051813 68 0 0.0 0.0 0.00 0.00 0.00 90 1015.9
20260905051203 68 0 0.0 0.0 0.00 0.00 0.00 90 1015.7
20260905050803 68 0 0.0 0.0 0.00 0.00 0.00 90 1015.7
20260905050403 68 0 0.0 0.0 0.00 0.00 0.00 90 1015.5
20260905050004 68 0 0.0 0.0 0.00 0.00 0.00 90 1015.7
20260905045603 68 0 0.0 0.0 0.00 0.00 0.00 90 1015.8
20260905045203 68 0 0.0 0.0 0.00 0.00 0.00 90 1015.7
20260905044803 68 0 0.0 0.0 0.00 0.00 0.00 90 1015.6
20260905044403 68 0 0.0 0.0 0.00 0.00 0.00 90 1015.9
20260905044003 68 0 0.0 0.0 0.00 0.00 0.00 90 1015.8
20260905043816 68 0 0.0 0.0 0.00 0.00 0.00 90 1015.7
20260905043203 68 0 0.0 0.0 0.00 0.00 0.00 90 1015.7
20260905042803 68 0 0.0 0.0 0.00 0.00 0.00 90 1015.6
20260905042403 68 283 0.0 0.0 0.00 0.00 0.00 90 1015.8
20260905042003 68 307 0.0 3.0 0.00 0.00 0.00 90 1015.7
20260905041603 68 307 0.0 3.0 0.00 0.00 0.00 90 1015.9
20260905041203 68 0 0.0 0.0 0.00 0.00 0.00 90 1015.9
20260905040803 68 0 0.0 0.0 0.00 0.00 0.00 90 1015.7
20260905040403 68 0 0.0 0.0 0.00 0.00 0.00 90 1016.0
20260905040003 68 0 0.0 0.0 0.00 0.00 0.00 90 1016.0
20260905035603 68 0 0.0 0.0 0.00 0.00 0.00 89 1015.8
20260905035415 68 0 0.0 0.0 0.00 0.00 0.00 89 1016.0
20260905035014 68 0 0.0 0.0 0.00 0.00 0.00 89 1015.9
20260905034404 68 0 0.0 0.0 0.00 0.00 0.00 89 1015.9
20260905034003 69 0 0.0 0.0 0.00 0.00 0.00 88 1015.9
20260905033603 69 0 0.0 0.0 0.00 0.00 0.00 89 1015.8
20260905033203 69 0 0.0 0.0 0.00 0.00 0.00 88 1015.8
20260905032803 69 0 0.0 0.0 0.00 0.00 0.00 88 1016.1
20260905032403 69 0 0.0 0.0 0.00 0.00 0.00 88 1016.2
20260905032003 69 328 0.0 1.0 0.00 0.00 0.00 88 1016.0
20260905031814 69 328 0.0 3.0 0.00 0.00 0.00 88 1016.0
20260905031413 69 328 0.0 3.0 0.00 0.00 0.00 88 1016.0
20260905030803 69 291 0.0 0.0 0.00 0.00 0.00 88 1016.0
20260905030403 69 281 0.0 2.0 0.00 0.00 0.00 88 1016.0
20260905030003 69 279 1.0 3.0 0.00 0.00 0.00 88 1015.9
20260905025603 68 277 0.0 3.0 0.00 0.00 0.00 88 1015.9
20260905025203 68 281 0.0 3.0 0.00 0.00 0.00 89 1016.0
20260905025015 68 0 0.0 0.0 0.00 0.00 0.00 89 1016.0
20260905024403 68 278 0.0 0.0 0.00 0.00 0.00 89 1015.8
20260905024003 68 277 0.0 1.0 0.00 0.00 0.00 90 1015.8
20260905023603 68 277 0.0 1.0 0.00 0.00 0.00 91 1015.8
20260905023417 68 278 0.0 1.0 0.00 0.00 0.00 91 1015.8
20260905022803 68 0 0.0 0.0 0.00 0.00 0.00 91 1015.8
20260905022403 68 0 0.0 0.0 0.00 0.00 0.00 91 1015.7
20260905022003 67 0 0.0 0.0 0.00 0.00 0.00 91 1015.8
20260905021603 68 0 0.0 0.0 0.00 0.00 0.00 91 1015.5
20260905021203 68 0 0.0 0.0 0.00 0.00 0.00 91 1015.6
20260905021013 68 0 0.0 0.0 0.00 0.00 0.00 91 1015.8
20260905020613 68 0 0.0 0.0 0.00 0.00 0.00 90 1015.5
20260905020003 68 0 0.0 0.0 0.00 0.00 0.00 90 1015.9
20260905015603 68 0 0.0 0.0 0.00 0.00 0.00 90 1015.9
20260905015203 68 0 0.0 0.0 0.00 0.00 0.00 90 1015.9
20260905014803 68 0 0.0 0.0 0.00 0.00 0.00 90 1015.9
20260905014403 68 0 0.0 0.0 0.00 0.00 0.00 90 1015.7
20260905014003 68 0 0.0 0.0 0.00 0.00 0.00 90 1015.8
20260905013603 68 0 0.0 0.0 0.00 0.00 0.00 90 1015.9
20260905013203 68 0 0.0 0.0 0.00 0.00 0.00 90 1015.9
20260905012803 68 0 0.0 0.0 0.00 0.00 0.00 90 1016.0
20260905012403 68 0 0.0 0.0 0.00 0.00 0.00 90 1015.9
20260905012003 68 0 0.0 0.0 0.00 0.00 0.00 90 1015.8
20260905011815 68 0 0.0 0.0 0.00 0.00 0.00 90 1015.8
20260905011203 68 0 0.0 0.0 0.00 0.00 0.00 89 1016.0
20260905010803 68 0 0.0 0.0 0.00 0.00 0.00 90 1016.1
20260905010403 68 0 0.0 0.0 0.00 0.00 0.00 90 1016.1
20260905010004 68 0 0.0 0.0 0.00 0.00 0.00 89 1016.0
20260905005603 69 0 0.0 0.0 0.00 0.00 0.00 89 1016.1